User: anonymous   Login
Location: Tauranga
(37.6860°S, 176.1670°E)
Time: 22:24:01
(UTC+13:00)
Language:

CENTAUR R/B - Orbit

View from above orbital plane
View from above orbital plane
View from above satellite
View from above satellite

Ground track
Ground track

The orbit data is extracted from the following two-line orbital elements,

1 26906U 01040B   19314.78314000 0.00000000  00000-0  00000-0 0    02
2 26906  63.4425 244.6112 0419002 339.9224  20.0776 13.44049307    04
Epoch (UTC): 10 November 2019 18:47:43
Eccentricity: 0.0419002
inclination: 63.4425°
perigee height: 781 km
apogee height: 1407 km
right ascension of ascending node: 244.6112°
argument of perigee: 339.9224°
revolutions per day: 13.44049307
mean anomaly at epoch: 20.0776°
orbit number at epoch: 0

The dashed part of the orbit path shows where the satellite is in the earth's shadow,  

DLR